This is the latest recevied weather packets stored in our database for station/object KI2K. If no packets are shown the sender has not sent any weather packets the latest 10 day(s).
| Time | Temp. | Humidity | Pressure | Rain* | Wind** | Luminosity | Snow |
|---|---|---|---|---|---|---|---|
| 1778112309 | 12.78° C | 59% | 1013.3 hPa | 0 mm | - | 19 W/m² | - |
| 1778112005 | 12.78° C | 58% | 1013.2 hPa | 0 mm | - | 21 W/m² | - |
| 1778111703 | 12.78° C | 56% | 1013.1 hPa | 0 mm | - | 25 W/m² | - |
| 1778111398 | 13.33° C | 57% | 1013.2 hPa | 0 mm | - | 26 W/m² | - |
| 1778111095 | 13.89° C | 57% | 1013.2 hPa | 0 mm | - | 27 W/m² | - |
| 1778110793 | 13.89° C | 58% | 1013.2 hPa | 0 mm | - | 40 W/m² | - |
| 1778110489 | 13.89° C | 55% | 1013.1 hPa | 0 mm | - | 34 W/m² | - |
| 1778110186 | 13.89° C | 54% | 1013.4 hPa | 0 mm | - | 50 W/m² | - |
| 1778109882 | 13.89° C | 55% | 1013.5 hPa | 0 mm | - | 70 W/m² | - |
| 1778109578 | 13.33° C | 57% | 1013.5 hPa | 0 mm | - | 92 W/m² | - |
| 1778109276 | 13.89° C | 56% | 1013.4 hPa | 0 mm | - | 50 W/m² | - |
| 1778108973 | 13.89° C | 54% | 1013.5 hPa | 0 mm | - | 50 W/m² | - |
| 1778108669 | 14.44° C | 57% | 1013.3 hPa | 0 mm | - | 75 W/m² | - |
| 1778108366 | 15° C | 55% | 1013 hPa | 0 mm | - | 143 W/m² | - |
| 1778108063 | 15° C | 53% | 1013.4 hPa | 0 mm | - | 176 W/m² | - |
| 1778107760 | 15° C | 54% | 1013.2 hPa | 0 mm | - | 201 W/m² | - |
| 1778107457 | 14.44° C | 57% | 1013.5 hPa | 0 mm | - | 236 W/m² | - |
| 1778107153 | 13.33° C | 59% | 1013.4 hPa | 0 mm | - | 226 W/m² | - |
| 1778106849 | 13.89° C | 58% | 1013.5 hPa | 0 mm | - | 67 W/m² | - |
| 1778106546 | 15° C | 56% | 1013.5 hPa | 0 mm | - | 82 W/m² | - |
| 1778106242 | 14.44° C | 56% | 1013.4 hPa | 0 mm | - | 227 W/m² | - |
| 1778105940 | 13.89° C | 58% | 1013.6 hPa | 0 mm | - | 231 W/m² | - |
| 1778105637 | 13.89° C | 59% | 1013.5 hPa | 0 mm | - | 93 W/m² | - |
| 1778105334 | 14.44° C | 58% | 1013.5 hPa | 0 mm | - | 102 W/m² | - |
| 1778105030 | 14.44° C | 58% | 1013.7 hPa | 0 mm | - | 345 W/m² | - |
* Rain latest hour (hover to see other rain measurements)
** Current wind speed in m/s (hover to see current wind gust speed)